Cloud_Cover
100 100 100 98 100 100 75 100 100 27 94 64 100 6 19 5 5 17 17 5 5 56 15 5 1 0 0 0 0 0 0 0
100 100 100 100 100 76 61 100 100 100 28 6 5 24 100 99 93 42 46 92 6 6 0 0 0 0 0 0 0 0 0 0
100 100 100 99 100 100 100 100 97 31 73 91 99 100 100 100 100 100 67 18 5 0 2 0 0 0 0 0 0 0 0 0
100 100 100 100 100 100 47 98 100 100 99 100 100 100 100 100 28 24 27 0 0 5 0 0 0 0 0 0 0 0 0 0
100 100 100 100 100 41 99 100 100 100 100 100 100 100 100 100 16 0 0 0 0 0 0 0 0 0 0 0 0 0 0 0
100 100 79 100 98 100 100 100 100 100 100 100 100 100 36 5 5 2 0 5 5 5 0 0 0 0 0 0 0 0 0 0
100 100 98 100 100 100 100 100 100 100 100 100 100 100 88 41 5 16 91 5 35 5 5 2 0 0 0 0 0 0 0 0
82 100 100 100 100 100 100 100 100 100 100 100 100 100 100 47 100 100 73 5 6 7 5 5 4 0 0 0 0 0 0 0
100 100 100 100 100 100 100 100 100 100 100 100 100 100 100 99 100 100 30 17 94 8 45 66 34 0 0 0 0 0 0 0
100 93 100 100 100 100 100 100 100 100 100 100 100 100 100 100 98 100 100 100 69 100 57 58 4 5 5 0 0 3 4 1
100 98 92 100 100 100 100 100 100 100 100 100 100 100 100 100 100 100 100 100 100 100 48 38 5 5 1 1 2 1 1 5
70 84 87 58 100 100 70 100 100 100 100 100 100 100 100 100 100 99 72 89 90 9 25 8 1 2 0 0 0 0 0 4
72 41 82 22 19 4 58 100 99 19 17 5 3 1 4 5 44 5 5 5 1 5 5 5 7 8 5 5 0 0 0 0
59 41 9 9 64 0 0 0 0 0 0 0 0 0 2 0 0 0 0 4 6 27 7 7 5 2 2 4 2 1 1 0
3 3 63 5 1 1 0 0 0 0 0 0 0 0 0 0 0 5 5 9 19 17 5 0 0 0 0 0 0 0 5 0
16 32 34 1 4 0 0 0 0 0 0 0 0 0 0 0 5 5 5 5 1 0 0 0 0 0 0 5 0 4 0 0
44 5 38 0 0 0 0 0 0 0 0 0 0 0 3 5 5 5 5 0 0 0 0 0 9 8 86 92 60 50 5 3
0 5 5 5 5 5 4 1 2 3 5 0 2 3 0 0 0 0 0 1 3 58 8 63 31 5 80 45 7 49 96 78
0 5 5 5 5 5 5 5 5 5 4 0 0 0 0 0 2 3 5 6 79 99 100 5 53 88 5 5 5 5 3 12
5 5 5 5 5 5 5 5 5 5 2 1 2 3 5 5 5 13 10 5 21 96 19 76 5 27 40 14 11 5 93 99